Weather History for KBFF - September, 2013

Change the Weather History Date:

Sunday, September 22, 2013

  Actual Average Record
Temperature  
Mean Temperature 70 °F 59 °F  
Max Temperature 89 °F 75 °F 93 °F (2007)
Min Temperature 50 °F 42 °F 24 °F (1995)
Degree Days  
Heating Degree Days 0 7  
Month to date heating degree days 24 87  
Since 1 July heating degree days 26 107  
Cooling Degree Days 5 1  
Month to date cooling degree days 155 54  
Year to date cooling degree days 1047 719  
Growing Degree Days 20 (Base 50)    
Moisture  
Dew Point 50 °F    
Average Humidity 56    
Maximum Humidity 93    
Minimum Humidity 19    
Precipitation  
Precipitation 0.21 in 0.04 in 1.75 in (1902)
Month to date precipitation 1.23 0.86  
Year to date precipitation 9.08 13.16  
Snow  
Snow 0.00 in 0.00 in - ()
Month to date snowfall 0.0 0.2  
Since 1 July snowfall 0.0 0.2  
Snow Depth -    
Sea Level Pressure  
Sea Level Pressure 29.55 in    
Wind  
Wind Speed 6 mph (NW)    
Max Wind Speed 40 mph    
Max Gust Speed 59 mph    
Visibility 10 miles    
Events Rain , Thunderstorm    
T = Trace of Precipitation, MM = Missing Value Source: NWS Daily Summary

Daily Weather History Graph

Daily Weather History Graph

Search for Another Location

Airport or City:

Trip Planner

Search our weather history database for the weather conditions in past years. The results will help you decide how hot, cold, wet, or windy it might be!

Date:

Astronomy

Sep. 22, 2013 Rise Set
Actual Time 6:42 AM MDT 6:51 PM MDT
Civil Twilight 6:14 AM MDT 7:18 PM MDT
Nautical Twilight 5:41 AM MDT 7:51 PM MDT
Astronomical Twilight 5:08 AM MDT 8:24 PM MDT
Moon 8:38 PM MDT (9/22) 10:08 AM MDT (9/22)
Length of Visible Light 13h 04m
Length of Day
12h 08m
Waning Gibbous, 88% of the Moon is Illuminated
Sep 22
Waning Gibbous
Sep 26
Last Quarter
Oct 4
New
Oct 11
First Quarter
Oct 18
Full

Hourly Weather History & Observations

Time (MDT) Temp. Dew Point Humidity Pressure Visibility Wind Dir Wind Speed Gust Speed Precip Events Conditions
12:53 AM 61.0 °F 48.9 °F 64% 29.62 in 10.0 mi Calm Calm - N/A   Clear
1:53 AM 59.0 °F 50.0 °F 72% 29.61 in 10.0 mi NE 5.8 mph - N/A   Clear
2:53 AM 57.0 °F 50.0 °F 77% 29.60 in 10.0 mi Calm Calm - N/A   Clear
3:53 AM 55.0 °F 48.9 °F 80% 29.59 in 10.0 mi Variable 5.8 mph - N/A   Clear
4:53 AM 53.1 °F 48.0 °F 83% 29.60 in 10.0 mi Calm Calm - N/A   Clear
5:53 AM 52.0 °F 46.9 °F 83% 29.60 in 10.0 mi East 3.5 mph - N/A   Clear
6:53 AM 52.0 °F - N/A% 29.62 in 10.0 mi Calm Calm - N/A   Clear
7:53 AM 59.0 °F - N/A% 29.61 in 10.0 mi NE 3.5 mph - N/A   Clear
8:53 AM 60.1 °F - N/A% 29.63 in 10.0 mi Calm Calm - N/A   Clear
9:53 AM 68.0 °F - N/A% 29.61 in 10.0 mi SSE 3.5 mph - N/A   Clear
10:53 AM 72.0 °F 52.0 °F 49% 29.59 in 10.0 mi ESE 5.8 mph - N/A   Clear
11:53 AM 82.0 °F 43.0 °F 25% 29.54 in 10.0 mi Variable 3.5 mph - N/A   Clear
12:53 PM 84.0 °F 45.0 °F 25% 29.52 in 10.0 mi South 4.6 mph - N/A   Clear
1:53 PM 89.1 °F 41.0 °F 19% 29.48 in 10.0 mi Variable 5.8 mph - N/A   Clear
2:53 PM 86.0 °F 41.0 °F 20% 29.46 in 10.0 mi NW 4.6 mph - N/A   Clear
3:53 PM 84.9 °F 44.1 °F 24% 29.46 in 10.0 mi SE 13.8 mph - N/A   Partly Cloudy
4:53 PM 79.0 °F 50.0 °F 36% 29.46 in 10.0 mi North 6.9 mph - N/A Thunderstorm Overcast
5:10 PM 78.8 °F 48.2 °F 34% 29.57 in 10.0 mi North 6.9 mph - N/A Thunderstorm Overcast
5:53 PM 61.0 °F 54.0 °F 78% 29.51 in 6.0 mi WNW 29.9 mph 49.5 mph 0.00 in Rain , Thunderstorm Light Thunderstorms and Rain
6:08 PM 57.2 °F 55.4 °F 94% 29.61 in 9.0 mi WNW 25.3 mph 35.7 mph 0.06 in Rain , Thunderstorm Light Thunderstorms and Rain
6:45 PM 60.8 °F - N/A% 29.58 in 10.0 mi WNW 10.4 mph - 0.06 in   Mostly Cloudy
6:53 PM 62.1 °F - N/A% 29.50 in 10.0 mi West 11.5 mph - 0.06 in Thunderstorm Mostly Cloudy
7:18 PM 62.6 °F - N/A% 29.59 in 10.0 mi NW 11.5 mph - 0.00 in Rain Light Rain
7:53 PM 62.1 °F - N/A% 29.54 in 10.0 mi NNW 5.8 mph - 0.01 in   Overcast
8:53 PM 61.0 °F 61.0 °F 100% 29.57 in 10.0 mi SW 9.2 mph - 0.02 in Rain Light Rain
9:53 PM 59.0 °F 54.0 °F 83% 29.55 in 7.0 mi WNW 6.9 mph - 0.03 in Rain Light Rain
10:53 PM 57.9 °F 55.0 °F 90% 29.54 in 10.0 mi West 5.8 mph - 0.06 in Rain Light Rain
11:53 PM 57.9 °F 55.9 °F 93% 29.45 in 10.0 mi NNE 8.1 mph - 0.03 in Rain Light Rain